iso_date,Year,Hour,Min,DOY,POS_DOY,Lat,Lon,BP,Ts,Ta,has_bp,has_ts,has_ta,BuoyID,Buoy_Type,Buoy_Owner,Logistics,Hemisphere
2021-10-25T03:20:09Z,2021,3,20,298.139,298.139,75.90152,-144.79201,-999.0,-2.17,-999.0,no,yes,no,51,AOFB,NPS,AMOS,North
2021-10-25T06:20:00Z,2021,6,20,298.2639,298.2639,75.88581,-144.73992,-999.0,-2.17,-999.0,no,yes,no,51,AOFB,NPS,AMOS,North
2021-10-25T09:20:26Z,2021,9,20,298.3892,298.3892,75.87208,-144.6955,-999.0,-2.17,-999.0,no,yes,no,51,AOFB,NPS,AMOS,North
2021-10-25T12:20:18Z,2021,12,20,298.5141,298.5141,75.86198,-144.65092,-999.0,-2.17,-999.0,no,yes,no,51,AOFB,NPS,AMOS,North
2021-10-25T15:20:00Z,2021,15,20,298.6389,298.6389,75.85155,-144.60599,-999.0,-2.17,-999.0,no,yes,no,51,AOFB,NPS,AMOS,North
2021-10-25T18:20:00Z,2021,18,20,298.7639,298.7639,75.84115,-144.56674,-999.0,-2.17,-999.0,no,yes,no,51,AOFB,NPS,AMOS,North
2021-10-25T21:20:18Z,2021,21,20,298.8891,298.8891,75.83248,-144.53187,-999.0,-2.17,-999.0,no,yes,no,51,AOFB,NPS,AMOS,North
2021-10-26T03:20:18Z,2021,3,20,299.1391,299.1391,75.81894,-144.46492,-999.0,-1.85,-999.0,no,yes,no,51,AOFB,NPS,AMOS,North
2021-10-26T09:20:18Z,2021,9,20,299.3891,299.3891,75.80785,-144.4076,-999.0,-1.84,-999.0,no,yes,no,51,AOFB,NPS,AMOS,North
2021-10-26T15:20:18Z,2021,15,20,299.6391,299.6391,75.80293,-144.35711,-999.0,-1.84,-999.0,no,yes,no,51,AOFB,NPS,AMOS,North
2021-10-26T21:20:09Z,2021,21,20,299.889,299.889,75.80249,-144.30192,-999.0,-1.85,-999.0,no,yes,no,51,AOFB,NPS,AMOS,North
2021-10-27T03:20:09Z,2021,3,20,300.139,300.139,75.80573,-144.25836,-999.0,-1.84,-999.0,no,yes,no,51,AOFB,NPS,AMOS,North
2021-10-27T09:20:09Z,2021,9,20,300.389,300.389,75.80698,-144.22555,-999.0,-1.85,-999.0,no,yes,no,51,AOFB,NPS,AMOS,North
2021-10-27T15:20:09Z,2021,15,20,300.639,300.639,75.80736,-144.20786,-999.0,-1.85,-999.0,no,yes,no,51,AOFB,NPS,AMOS,North
2021-10-27T21:20:09Z,2021,21,20,300.889,300.889,75.80506,-144.21269,-999.0,-1.85,-999.0,no,yes,no,51,AOFB,NPS,AMOS,North
2021-10-28T03:20:09Z,2021,3,20,301.139,301.139,75.79678,-144.24548,-999.0,-1.85,-999.0,no,yes,no,51,AOFB,NPS,AMOS,North
2021-10-28T09:20:18Z,2021,9,20,301.3891,301.3891,75.78604,-144.28761,-999.0,-1.85,-999.0,no,yes,no,51,AOFB,NPS,AMOS,North
2021-10-28T15:20:18Z,2021,15,20,301.6391,301.6391,75.77533,-144.35285,-999.0,-1.85,-999.0,no,yes,no,51,AOFB,NPS,AMOS,North
2021-10-28T21:20:18Z,2021,21,20,301.8891,301.8891,75.78011,-144.38256,-999.0,-1.84,-999.0,no,yes,no,51,AOFB,NPS,AMOS,North
2021-11-02T14:09:36Z,2021,14,10,306.59,306.59,75.87003,-144.94125,-999.0,-2.43,-999.0,no,yes,no,51,AOFB,NPS,AMOS,North
2021-11-02T17:09:18Z,2021,17,9,306.7148,306.7148,75.87241,-144.95608,-999.0,-2.17,-999.0,no,yes,no,51,AOFB,NPS,AMOS,North
2021-11-02T20:09:01Z,2021,20,9,306.8396,306.8396,75.8748,-144.97091,-999.0,-2.17,-999.0,no,yes,no,51,AOFB,NPS,AMOS,North
2021-11-02T23:09:18Z,2021,23,9,306.9648,306.9648,75.87719,-144.98579,-999.0,-2.16,-999.0,no,yes,no,51,AOFB,NPS,AMOS,North
2021-11-03T02:09:27Z,2021,2,9,307.0899,307.0899,75.87959,-145.00066,-999.0,-2.17,-999.0,no,yes,no,51,AOFB,NPS,AMOS,North
2021-11-03T05:09:18Z,2021,5,9,307.2148,307.2148,75.88197,-145.0155,-999.0,-2.17,-999.0,no,yes,no,51,AOFB,NPS,AMOS,North
2021-11-03T08:09:18Z,2021,8,9,307.3398,307.3398,75.88437,-145.03037,-999.0,-2.17,-999.0,no,yes,no,51,AOFB,NPS,AMOS,North
2021-11-03T11:09:18Z,2021,11,9,307.4648,307.4648,75.88676,-145.04522,-999.0,-2.17,-999.0,no,yes,no,51,AOFB,NPS,AMOS,North
2021-11-03T14:09:10Z,2021,14,9,307.5897,307.5897,75.89696,-145.08748,-999.0,-2.17,-999.0,no,yes,no,51,AOFB,NPS,AMOS,North
2021-11-03T17:09:18Z,2021,17,9,307.7148,307.7148,75.91055,-145.15451,-999.0,-2.17,-999.0,no,yes,no,51,AOFB,NPS,AMOS,North
2021-11-03T20:09:18Z,2021,20,9,307.8398,307.8398,75.92263,-145.21265,-999.0,-2.17,-999.0,no,yes,no,51,AOFB,NPS,AMOS,North
2021-11-03T23:09:18Z,2021,23,9,307.9648,307.9648,75.9317,-145.26058,-999.0,-2.15,-999.0,no,yes,no,51,AOFB,NPS,AMOS,North
2021-11-04T02:09:10Z,2021,2,9,308.0897,308.0897,75.93549,-145.30299,-999.0,-2.17,-999.0,no,yes,no,51,AOFB,NPS,AMOS,North
2021-11-04T05:09:18Z,2021,5,9,308.2148,308.2148,75.93338,-145.3412,-999.0,-2.17,-999.0,no,yes,no,51,AOFB,NPS,AMOS,North
2021-11-04T08:09:27Z,2021,8,9,308.3399,308.3399,75.92425,-145.3757,-999.0,-2.17,-999.0,no,yes,no,51,AOFB,NPS,AMOS,North
2021-11-04T11:09:18Z,2021,11,9,308.4648,308.4648,75.90775,-145.39874,-999.0,-2.19,-999.0,no,yes,no,51,AOFB,NPS,AMOS,North
2021-11-04T14:09:01Z,2021,14,9,308.5896,308.5896,75.87875,-145.42086,-999.0,-2.17,-999.0,no,yes,no,51,AOFB,NPS,AMOS,North
2021-11-04T17:09:18Z,2021,17,9,308.7148,308.7148,75.84438,-145.4591,-999.0,-2.17,-999.0,no,yes,no,51,AOFB,NPS,AMOS,North
2021-11-04T20:09:18Z,2021,20,9,308.8398,308.8398,75.81655,-145.48627,-999.0,-2.17,-999.0,no,yes,no,51,AOFB,NPS,AMOS,North
2021-11-04T23:09:10Z,2021,23,9,308.9647,308.9647,75.79446,-145.48159,-999.0,-2.17,-999.0,no,yes,no,51,AOFB,NPS,AMOS,North
2021-11-05T02:09:10Z,2021,2,9,309.0897,309.0897,75.77455,-145.46197,-999.0,-2.17,-999.0,no,yes,no,51,AOFB,NPS,AMOS,North
2021-11-05T05:09:18Z,2021,5,9,309.2148,309.2148,75.7579,-145.44908,-999.0,-2.17,-999.0,no,yes,no,51,AOFB,NPS,AMOS,North
2021-11-05T08:09:10Z,2021,8,9,309.3397,309.3397,75.75383,-145.4422,-999.0,-2.17,-999.0,no,yes,no,51,AOFB,NPS,AMOS,North
2021-11-05T11:09:18Z,2021,11,9,309.4648,309.4648,75.75329,-145.43492,-999.0,-2.17,-999.0,no,yes,no,51,AOFB,NPS,AMOS,North
2021-11-05T14:09:10Z,2021,14,9,309.5897,309.5897,75.75275,-145.42765,-999.0,-2.19,-999.0,no,yes,no,51,AOFB,NPS,AMOS,North
2021-11-05T17:09:18Z,2021,17,9,309.7148,309.7148,75.75222,-145.42037,-999.0,-2.2,-999.0,no,yes,no,51,AOFB,NPS,AMOS,North
2021-11-05T20:09:10Z,2021,20,9,309.8397,309.8397,75.75168,-145.4131,-999.0,-2.17,-999.0,no,yes,no,51,AOFB,NPS,AMOS,North
2021-11-05T23:09:10Z,2021,23,9,309.9647,309.9647,75.75114,-145.40583,-999.0,-2.21,-999.0,no,yes,no,51,AOFB,NPS,AMOS,North
2021-11-22T12:52:24Z,2021,13,52,326.5364,326.5364,75.59994,-144.48635,-999.0,-1.83,-999.0,no,yes,no,51,AOFB,NPS,AMOS,North
2021-11-22T18:52:24Z,2021,19,52,326.7864,326.7864,75.5858,-144.43122,-999.0,-1.83,-999.0,no,yes,no,51,AOFB,NPS,AMOS,North
2021-11-23T00:52:33Z,2021,1,53,327.0365,327.0365,75.57278,-144.38947,-999.0,-1.83,-999.0,no,yes,no,51,AOFB,NPS,AMOS,North
2021-11-23T06:52:33Z,2021,7,53,327.2865,327.2865,75.56495,-144.38338,-999.0,-1.83,-999.0,no,yes,no,51,AOFB,NPS,AMOS,North
2021-11-23T12:52:33Z,2021,13,53,327.5365,327.5365,75.55655,-144.39819,-999.0,-1.84,-999.0,no,yes,no,51,AOFB,NPS,AMOS,North
2021-11-23T18:52:33Z,2021,19,53,327.7865,327.7865,75.54943,-144.42239,-999.0,-1.84,-999.0,no,yes,no,51,AOFB,NPS,AMOS,North
2021-11-24T00:52:42Z,2021,1,53,328.0366,328.0366,75.54355,-144.45436,-999.0,-1.84,-999.0,no,yes,no,51,AOFB,NPS,AMOS,North
2021-11-24T06:52:33Z,2021,7,53,328.2865,328.2865,75.54138,-144.48502,-999.0,-1.83,-999.0,no,yes,no,51,AOFB,NPS,AMOS,North
2021-11-24T12:52:24Z,2021,13,52,328.5364,328.5364,75.53856,-144.51944,-999.0,-1.84,-999.0,no,yes,no,51,AOFB,NPS,AMOS,North
2021-11-24T18:52:24Z,2021,19,52,328.7864,328.7864,75.53482,-144.55143,-999.0,-1.83,-999.0,no,yes,no,51,AOFB,NPS,AMOS,North
2021-11-25T00:52:33Z,2021,1,53,329.0365,329.0365,75.53074,-144.58235,-999.0,-1.83,-999.0,no,yes,no,51,AOFB,NPS,AMOS,North
2021-11-25T06:52:33Z,2021,7,53,329.2865,329.2865,75.52579,-144.61123,-999.0,-1.83,-999.0,no,yes,no,51,AOFB,NPS,AMOS,North
2021-11-25T12:52:33Z,2021,13,53,329.5365,329.5365,75.52128,-144.63033,-999.0,-1.83,-999.0,no,yes,no,51,AOFB,NPS,AMOS,North
2021-11-25T18:52:33Z,2021,19,53,329.7865,329.7865,75.51675,-144.66453,-999.0,-1.83,-999.0,no,yes,no,51,AOFB,NPS,AMOS,North
2021-11-26T00:52:16Z,2021,1,52,330.0363,330.0363,75.51126,-144.70123,-999.0,-1.83,-999.0,no,yes,no,51,AOFB,NPS,AMOS,North
2021-11-26T06:52:16Z,2021,7,52,330.2863,330.2863,75.50358,-144.73517,-999.0,-1.83,-999.0,no,yes,no,51,AOFB,NPS,AMOS,North
2021-11-26T12:52:24Z,2021,13,52,330.5364,330.5364,75.49207,-144.76335,-999.0,-1.83,-999.0,no,yes,no,51,AOFB,NPS,AMOS,North
2021-11-26T18:52:33Z,2021,19,53,330.7865,330.7865,75.47761,-144.77186,-999.0,-1.83,-999.0,no,yes,no,51,AOFB,NPS,AMOS,North
2021-11-27T00:52:16Z,2021,1,52,331.0363,331.0363,75.46317,-144.77106,-999.0,-1.83,-999.0,no,yes,no,51,AOFB,NPS,AMOS,North
2021-11-27T06:52:16Z,2021,7,52,331.2863,331.2863,75.44842,-144.76147,-999.0,-1.83,-999.0,no,yes,no,51,AOFB,NPS,AMOS,North
2021-11-27T12:52:16Z,2021,13,52,331.5363,331.5363,75.43358,-144.74588,-999.0,-1.82,-999.0,no,yes,no,51,AOFB,NPS,AMOS,North
2021-11-27T18:52:16Z,2021,19,52,331.7863,331.7863,75.41987,-144.7346,-999.0,-1.83,-999.0,no,yes,no,51,AOFB,NPS,AMOS,North
2021-11-28T00:52:24Z,2021,1,52,332.0364,332.0364,75.40724,-144.73679,-999.0,-1.83,-999.0,no,yes,no,51,AOFB,NPS,AMOS,North
2021-11-28T06:52:24Z,2021,7,52,332.2864,332.2864,75.39759,-144.75435,-999.0,-1.83,-999.0,no,yes,no,51,AOFB,NPS,AMOS,North
2021-11-28T12:52:16Z,2021,13,52,332.5363,332.5363,75.38897,-144.78093,-999.0,-1.83,-999.0,no,yes,no,51,AOFB,NPS,AMOS,North
2021-11-28T18:52:16Z,2021,19,52,332.7863,332.7863,75.37927,-144.81425,-999.0,-1.83,-999.0,no,yes,no,51,AOFB,NPS,AMOS,North
2021-11-29T00:52:24Z,2021,1,52,333.0364,333.0364,75.3679,-144.85617,-999.0,-1.84,-999.0,no,yes,no,51,AOFB,NPS,AMOS,North
2021-11-29T06:52:24Z,2021,7,52,333.2864,333.2864,75.3517,-144.9017,-999.0,-1.83,-999.0,no,yes,no,51,AOFB,NPS,AMOS,North
2021-11-29T12:52:16Z,2021,13,52,333.5363,333.5363,75.33369,-144.95786,-999.0,-1.83,-999.0,no,yes,no,51,AOFB,NPS,AMOS,North
2021-11-29T18:52:24Z,2021,19,52,333.7864,333.7864,75.31939,-145.00219,-999.0,-1.83,-999.0,no,yes,no,51,AOFB,NPS,AMOS,North
2021-11-30T00:52:24Z,2021,1,52,334.0364,334.0364,75.30706,-145.03768,-999.0,-1.83,-999.0,no,yes,no,51,AOFB,NPS,AMOS,North
2021-11-30T06:52:24Z,2021,7,52,334.2864,334.2864,75.29546,-145.06125,-999.0,-1.83,-999.0,no,yes,no,51,AOFB,NPS,AMOS,North
2021-11-30T12:52:24Z,2021,13,52,334.5364,334.5364,75.28502,-145.07792,-999.0,-1.83,-999.0,no,yes,no,51,AOFB,NPS,AMOS,North
2021-11-30T18:52:16Z,2021,19,52,334.7863,334.7863,75.27584,-145.07549,-999.0,-1.83,-999.0,no,yes,no,51,AOFB,NPS,AMOS,North
2021-12-01T00:52:24Z,2021,1,52,335.0364,335.0364,75.26869,-145.07584,-999.0,-1.83,-999.0,no,yes,no,51,AOFB,NPS,AMOS,North
2021-12-01T06:52:24Z,2021,7,52,335.2864,335.2864,75.26072,-145.07594,-999.0,-1.83,-999.0,no,yes,no,51,AOFB,NPS,AMOS,North
2021-12-01T12:52:33Z,2021,13,53,335.5365,335.5365,75.25245,-145.06655,-999.0,-1.82,-999.0,no,yes,no,51,AOFB,NPS,AMOS,North
2021-12-01T18:52:33Z,2021,19,53,335.7865,335.7865,75.24206,-145.04775,-999.0,-1.82,-999.0,no,yes,no,51,AOFB,NPS,AMOS,North
2021-12-02T00:52:16Z,2021,1,52,336.0363,336.0363,75.23055,-145.02818,-999.0,-1.83,-999.0,no,yes,no,51,AOFB,NPS,AMOS,North
2021-12-02T06:52:33Z,2021,7,53,336.2865,336.2865,75.21725,-145.00715,-999.0,-1.82,-999.0,no,yes,no,51,AOFB,NPS,AMOS,North
2021-12-02T12:52:16Z,2021,13,52,336.5363,336.5363,75.20328,-144.9706,-999.0,-1.82,-999.0,no,yes,no,51,AOFB,NPS,AMOS,North
2021-12-02T18:52:16Z,2021,19,52,336.7863,336.7863,75.18497,-144.89379,-999.0,-1.82,-999.0,no,yes,no,51,AOFB,NPS,AMOS,North
2021-12-03T00:52:24Z,2021,1,52,337.0364,337.0364,75.16152,-144.81229,-999.0,-1.82,-999.0,no,yes,no,51,AOFB,NPS,AMOS,North
2021-12-03T06:52:16Z,2021,7,52,337.2863,337.2863,75.13673,-144.73235,-999.0,-1.83,-999.0,no,yes,no,51,AOFB,NPS,AMOS,North
2021-12-03T12:52:16Z,2021,13,52,337.5363,337.5363,75.11997,-144.68917,-999.0,-1.83,-999.0,no,yes,no,51,AOFB,NPS,AMOS,North
2021-12-03T18:52:24Z,2021,19,52,337.7864,337.7864,75.11081,-144.6673,-999.0,-1.83,-999.0,no,yes,no,51,AOFB,NPS,AMOS,North
2021-12-04T00:52:33Z,2021,1,53,338.0365,338.0365,75.10935,-144.65114,-999.0,-1.83,-999.0,no,yes,no,51,AOFB,NPS,AMOS,North
2021-12-04T06:52:33Z,2021,7,53,338.2865,338.2865,75.11746,-144.64097,-999.0,-1.83,-999.0,no,yes,no,51,AOFB,NPS,AMOS,North
2021-12-04T12:52:33Z,2021,13,53,338.5365,338.5365,75.13631,-144.64013,-999.0,-1.83,-999.0,no,yes,no,51,AOFB,NPS,AMOS,North
2021-12-04T18:52:33Z,2021,19,53,338.7865,338.7865,75.17227,-144.62425,-999.0,-1.83,-999.0,no,yes,no,51,AOFB,NPS,AMOS,North
2021-12-05T00:52:16Z,2021,1,52,339.0363,339.0363,75.2117,-144.59283,-999.0,-1.82,-999.0,no,yes,no,51,AOFB,NPS,AMOS,North
2021-12-05T06:52:16Z,2021,7,52,339.2863,339.2863,75.25367,-144.50976,-999.0,-1.82,-999.0,no,yes,no,51,AOFB,NPS,AMOS,North
2021-12-05T12:52:16Z,2021,13,52,339.5363,339.5363,75.28453,-144.40874,-999.0,-1.83,-999.0,no,yes,no,51,AOFB,NPS,AMOS,North
2021-12-05T18:52:16Z,2021,19,52,339.7863,339.7863,75.30079,-144.30969,-999.0,-1.83,-999.0,no,yes,no,51,AOFB,NPS,AMOS,North
2021-12-06T00:52:24Z,2021,1,52,340.0364,340.0364,75.30393,-144.2635,-999.0,-1.83,-999.0,no,yes,no,51,AOFB,NPS,AMOS,North
2021-12-06T06:52:24Z,2021,7,52,340.2864,340.2864,75.30907,-144.28057,-999.0,-1.83,-999.0,no,yes,no,51,AOFB,NPS,AMOS,North
2021-12-06T12:52:16Z,2021,13,52,340.5363,340.5363,75.32843,-144.3425,-999.0,-1.82,-999.0,no,yes,no,51,AOFB,NPS,AMOS,North
2021-12-06T18:52:16Z,2021,19,52,340.7863,340.7863,75.35228,-144.43832,-999.0,-1.82,-999.0,no,yes,no,51,AOFB,NPS,AMOS,North
2021-12-07T00:52:24Z,2021,1,52,341.0364,341.0364,75.36786,-144.55607,-999.0,-1.82,-999.0,no,yes,no,51,AOFB,NPS,AMOS,North
2021-12-07T06:52:24Z,2021,7,52,341.2864,341.2864,75.37765,-144.65942,-999.0,-1.83,-999.0,no,yes,no,51,AOFB,NPS,AMOS,North
2021-12-07T12:52:33Z,2021,13,53,341.5365,341.5365,75.38459,-144.76955,-999.0,-1.82,-999.0,no,yes,no,51,AOFB,NPS,AMOS,North
2021-12-07T18:52:33Z,2021,19,53,341.7865,341.7865,75.39326,-144.88262,-999.0,-1.82,-999.0,no,yes,no,51,AOFB,NPS,AMOS,North
2021-12-08T00:52:33Z,2021,1,53,342.0365,342.0365,75.39792,-144.98772,-999.0,-1.82,-999.0,no,yes,no,51,AOFB,NPS,AMOS,North
2021-12-08T06:52:16Z,2021,7,52,342.2863,342.2863,75.40286,-145.07735,-999.0,-1.83,-999.0,no,yes,no,51,AOFB,NPS,AMOS,North
2021-12-08T12:52:16Z,2021,13,52,342.5363,342.5363,75.40041,-145.15143,-999.0,-1.82,-999.0,no,yes,no,51,AOFB,NPS,AMOS,North
2021-12-08T18:52:16Z,2021,19,52,342.7863,342.7863,75.3979,-145.21912,-999.0,-1.82,-999.0,no,yes,no,51,AOFB,NPS,AMOS,North
2021-12-09T00:52:24Z,2021,1,52,343.0364,343.0364,75.39509,-145.25481,-999.0,-1.82,-999.0,no,yes,no,51,AOFB,NPS,AMOS,North
2021-12-09T06:52:24Z,2021,7,52,343.2864,343.2864,75.39557,-145.27176,-999.0,-1.82,-999.0,no,yes,no,51,AOFB,NPS,AMOS,North
2021-12-09T12:52:24Z,2021,13,52,343.5364,343.5364,75.39706,-145.268,-999.0,-1.82,-999.0,no,yes,no,51,AOFB,NPS,AMOS,North
2021-12-09T18:52:24Z,2021,19,52,343.7864,343.7864,75.40207,-145.273,-999.0,-1.82,-999.0,no,yes,no,51,AOFB,NPS,AMOS,North
2021-12-10T00:52:33Z,2021,1,53,344.0365,344.0365,75.40434,-145.27526,-999.0,-1.82,-999.0,no,yes,no,51,AOFB,NPS,AMOS,North
2021-12-10T06:52:16Z,2021,7,52,344.2863,344.2863,75.40921,-145.28614,-999.0,-1.82,-999.0,no,yes,no,51,AOFB,NPS,AMOS,North
2021-12-10T12:52:24Z,2021,13,52,344.5364,344.5364,75.41116,-145.29461,-999.0,-1.82,-999.0,no,yes,no,51,AOFB,NPS,AMOS,North
2021-12-10T18:52:16Z,2021,19,52,344.7863,344.7863,75.40893,-145.31639,-999.0,-1.82,-999.0,no,yes,no,51,AOFB,NPS,AMOS,North
2021-12-11T00:52:24Z,2021,1,52,345.0364,345.0364,75.40154,-145.32557,-999.0,-1.82,-999.0,no,yes,no,51,AOFB,NPS,AMOS,North
2021-12-11T06:52:24Z,2021,7,52,345.2864,345.2864,75.39439,-145.32788,-999.0,-1.81,-999.0,no,yes,no,51,AOFB,NPS,AMOS,North
2021-12-11T12:52:16Z,2021,13,52,345.5363,345.5363,75.38653,-145.31827,-999.0,-1.81,-999.0,no,yes,no,51,AOFB,NPS,AMOS,North
2021-12-11T18:52:16Z,2021,19,52,345.7863,345.7863,75.37886,-145.31159,-999.0,-1.81,-999.0,no,yes,no,51,AOFB,NPS,AMOS,North
2021-12-12T00:52:24Z,2021,1,52,346.0364,346.0364,75.37016,-145.29262,-999.0,-1.81,-999.0,no,yes,no,51,AOFB,NPS,AMOS,North
2021-12-12T06:52:24Z,2021,7,52,346.2864,346.2864,75.36028,-145.26798,-999.0,-1.81,-999.0,no,yes,no,51,AOFB,NPS,AMOS,North
2021-12-12T12:52:24Z,2021,13,52,346.5364,346.5364,75.34891,-145.23053,-999.0,-1.81,-999.0,no,yes,no,51,AOFB,NPS,AMOS,North
2021-12-12T18:52:33Z,2021,19,53,346.7865,346.7865,75.336,-145.18404,-999.0,-1.81,-999.0,no,yes,no,51,AOFB,NPS,AMOS,North
2021-12-13T00:52:16Z,2021,1,52,347.0363,347.0363,75.32323,-145.12562,-999.0,-1.82,-999.0,no,yes,no,51,AOFB,NPS,AMOS,North
2021-12-13T06:52:16Z,2021,7,52,347.2863,347.2863,75.31187,-145.05953,-999.0,-1.82,-999.0,no,yes,no,51,AOFB,NPS,AMOS,North
2021-12-13T12:52:16Z,2021,13,52,347.5363,347.5363,75.30417,-144.99175,-999.0,-1.81,-999.0,no,yes,no,51,AOFB,NPS,AMOS,North
2021-12-13T18:52:16Z,2021,19,52,347.7863,347.7863,75.30165,-144.93879,-999.0,-1.82,-999.0,no,yes,no,51,AOFB,NPS,AMOS,North
2021-12-14T00:52:24Z,2021,1,52,348.0364,348.0364,75.29911,-144.89509,-999.0,-1.82,-999.0,no,yes,no,51,AOFB,NPS,AMOS,North
2021-12-14T06:52:16Z,2021,7,52,348.2863,348.2863,75.29499,-144.88406,-999.0,-1.82,-999.0,no,yes,no,51,AOFB,NPS,AMOS,North
2021-12-14T12:52:33Z,2021,13,53,348.5365,348.5365,75.28751,-144.88477,-999.0,-1.82,-999.0,no,yes,no,51,AOFB,NPS,AMOS,North
2021-12-14T18:52:16Z,2021,19,52,348.7863,348.7863,75.27904,-144.89416,-999.0,-1.82,-999.0,no,yes,no,51,AOFB,NPS,AMOS,North
2021-12-15T00:52:16Z,2021,1,52,349.0363,349.0363,75.27084,-144.90255,-999.0,-1.82,-999.0,no,yes,no,51,AOFB,NPS,AMOS,North
2021-12-15T06:52:24Z,2021,7,52,349.2864,349.2864,75.2604,-144.90765,-999.0,-1.82,-999.0,no,yes,no,51,AOFB,NPS,AMOS,North
2021-12-15T12:52:24Z,2021,13,52,349.5364,349.5364,75.2519,-144.90811,-999.0,-1.81,-999.0,no,yes,no,51,AOFB,NPS,AMOS,North
2021-12-15T18:52:16Z,2021,19,52,349.7863,349.7863,75.24549,-144.90412,-999.0,-1.81,-999.0,no,yes,no,51,AOFB,NPS,AMOS,North
2021-12-16T00:52:24Z,2021,1,52,350.0364,350.0364,75.24131,-144.89741,-999.0,-1.81,-999.0,no,yes,no,51,AOFB,NPS,AMOS,North
2021-12-16T06:52:24Z,2021,7,52,350.2864,350.2864,75.23766,-144.88983,-999.0,-1.81,-999.0,no,yes,no,51,AOFB,NPS,AMOS,North
2021-12-16T12:52:16Z,2021,13,52,350.5363,350.5363,75.23709,-144.88362,-999.0,-1.82,-999.0,no,yes,no,51,AOFB,NPS,AMOS,North
2021-12-16T18:52:16Z,2021,19,52,350.7863,350.7863,75.23831,-144.88452,-999.0,-1.81,-999.0,no,yes,no,51,AOFB,NPS,AMOS,North
2021-12-17T00:52:16Z,2021,1,52,351.0363,351.0363,75.24019,-144.88194,-999.0,-1.81,-999.0,no,yes,no,51,AOFB,NPS,AMOS,North
2021-12-17T06:52:24Z,2021,7,52,351.2864,351.2864,75.24203,-144.87747,-999.0,-1.81,-999.0,no,yes,no,51,AOFB,NPS,AMOS,North
2021-12-17T12:52:24Z,2021,13,52,351.5364,351.5364,75.24581,-144.87332,-999.0,-1.81,-999.0,no,yes,no,51,AOFB,NPS,AMOS,North
2021-12-17T18:52:24Z,2021,19,52,351.7864,351.7864,75.25066,-144.8749,-999.0,-1.81,-999.0,no,yes,no,51,AOFB,NPS,AMOS,North
2021-12-18T00:52:24Z,2021,1,52,352.0364,352.0364,75.25704,-144.87426,-999.0,-1.81,-999.0,no,yes,no,51,AOFB,NPS,AMOS,North
2021-12-18T06:52:24Z,2021,7,52,352.2864,352.2864,75.26309,-144.87723,-999.0,-1.81,-999.0,no,yes,no,51,AOFB,NPS,AMOS,North
2021-12-18T12:52:24Z,2021,13,52,352.5364,352.5364,75.27035,-144.88156,-999.0,-1.81,-999.0,no,yes,no,51,AOFB,NPS,AMOS,North
2021-12-18T18:52:24Z,2021,19,52,352.7864,352.7864,75.276,-144.8882,-999.0,-1.8,-999.0,no,yes,no,51,AOFB,NPS,AMOS,North
2021-12-19T00:52:24Z,2021,1,52,353.0364,353.0364,75.28025,-144.89359,-999.0,-1.81,-999.0,no,yes,no,51,AOFB,NPS,AMOS,North
2021-12-19T06:52:33Z,2021,7,53,353.2865,353.2865,75.28374,-144.89891,-999.0,-1.8,-999.0,no,yes,no,51,AOFB,NPS,AMOS,North
2021-12-19T12:52:33Z,2021,13,53,353.5365,353.5365,75.28761,-144.90861,-999.0,-1.79,-999.0,no,yes,no,51,AOFB,NPS,AMOS,North
2021-12-19T18:52:33Z,2021,19,53,353.7865,353.7865,75.29427,-144.92501,-999.0,-1.79,-999.0,no,yes,no,51,AOFB,NPS,AMOS,North
2021-12-20T00:52:33Z,2021,1,53,354.0365,354.0365,75.3065,-144.96445,-999.0,-1.78,-999.0,no,yes,no,51,AOFB,NPS,AMOS,North
2021-12-20T06:52:24Z,2021,7,52,354.2864,354.2864,75.33348,-145.04438,-999.0,-1.79,-999.0,no,yes,no,51,AOFB,NPS,AMOS,North
2021-12-20T12:52:24Z,2021,13,52,354.5364,354.5364,75.3806,-145.1933,-999.0,-1.79,-999.0,no,yes,no,51,AOFB,NPS,AMOS,North
2021-12-20T18:52:24Z,2021,19,52,354.7864,354.7864,75.4449,-145.37595,-999.0,-1.78,-999.0,no,yes,no,51,AOFB,NPS,AMOS,North
2021-12-21T00:52:33Z,2021,1,53,355.0365,355.0365,75.47616,-145.46959,-999.0,-1.78,-999.0,no,yes,no,51,AOFB,NPS,AMOS,North
2021-12-21T06:52:33Z,2021,7,53,355.2865,355.2865,75.50624,-145.56006,-999.0,-1.78,-999.0,no,yes,no,51,AOFB,NPS,AMOS,North
2021-12-21T12:52:33Z,2021,13,53,355.5365,355.5365,75.53632,-145.65054,-999.0,-1.78,-999.0,no,yes,no,51,AOFB,NPS,AMOS,North
2021-12-21T18:52:16Z,2021,19,52,355.7863,355.7863,75.54847,-145.68109,-999.0,-1.78,-999.0,no,yes,no,51,AOFB,NPS,AMOS,North
2021-12-22T00:52:16Z,2021,1,52,356.0363,356.0363,75.51889,-145.57224,-999.0,-1.78,-999.0,no,yes,no,51,AOFB,NPS,AMOS,North
2021-12-22T06:52:16Z,2021,7,52,356.2863,356.2863,75.48904,-145.46053,-999.0,-1.78,-999.0,no,yes,no,51,AOFB,NPS,AMOS,North
2021-12-22T12:52:16Z,2021,13,52,356.5363,356.5363,75.46217,-145.39342,-999.0,-1.78,-999.0,no,yes,no,51,AOFB,NPS,AMOS,North
2021-12-22T18:52:33Z,2021,19,53,356.7865,356.7865,75.42848,-145.36637,-999.0,-1.78,-999.0,no,yes,no,51,AOFB,NPS,AMOS,North
2021-12-23T00:52:33Z,2021,1,53,357.0365,357.0365,75.4027,-145.38736,-999.0,-1.78,-999.0,no,yes,no,51,AOFB,NPS,AMOS,North
2021-12-23T06:52:33Z,2021,7,53,357.2865,357.2865,75.37692,-145.40835,-999.0,-1.77,-999.0,no,yes,no,51,AOFB,NPS,AMOS,North
2021-12-23T12:52:33Z,2021,13,53,357.5365,357.5365,75.35114,-145.42935,-999.0,-1.77,-999.0,no,yes,no,51,AOFB,NPS,AMOS,North
2021-12-23T18:52:16Z,2021,19,52,357.7863,357.7863,75.33929,-145.41487,-999.0,-1.77,-999.0,no,yes,no,51,AOFB,NPS,AMOS,North
2021-12-24T00:52:16Z,2021,1,52,358.0363,358.0363,75.33129,-145.3469,-999.0,-1.78,-999.0,no,yes,no,51,AOFB,NPS,AMOS,North
2021-12-24T06:52:16Z,2021,7,52,358.2863,358.2863,75.3233,-145.27892,-999.0,-1.78,-999.0,no,yes,no,51,AOFB,NPS,AMOS,North
2021-12-24T12:52:16Z,2021,13,52,358.5363,358.5363,75.3153,-145.21095,-999.0,-1.77,-999.0,no,yes,no,51,AOFB,NPS,AMOS,North
2021-12-24T18:52:16Z,2021,19,52,358.7863,358.7863,75.3073,-145.14297,-999.0,-1.78,-999.0,no,yes,no,51,AOFB,NPS,AMOS,North
2021-12-25T00:52:16Z,2021,1,52,359.0363,359.0363,75.29931,-145.07499,-999.0,-1.78,-999.0,no,yes,no,51,AOFB,NPS,AMOS,North
2021-12-25T06:52:33Z,2021,7,53,359.2865,359.2865,75.30782,-144.99633,-999.0,-1.78,-999.0,no,yes,no,51,AOFB,NPS,AMOS,North
2021-12-25T12:52:16Z,2021,13,52,359.5363,359.5363,75.32133,-144.95363,-999.0,-1.78,-999.0,no,yes,no,51,AOFB,NPS,AMOS,North
2021-12-25T18:52:24Z,2021,19,52,359.7864,359.7864,75.33229,-144.9251,-999.0,-1.78,-999.0,no,yes,no,51,AOFB,NPS,AMOS,North
2021-12-26T00:52:16Z,2021,1,52,360.0363,360.0363,75.34625,-144.91661,-999.0,-1.79,-999.0,no,yes,no,51,AOFB,NPS,AMOS,North
2021-12-26T06:52:24Z,2021,7,52,360.2864,360.2864,75.3603,-144.92587,-999.0,-1.79,-999.0,no,yes,no,51,AOFB,NPS,AMOS,North
2021-12-26T12:52:24Z,2021,13,52,360.5364,360.5364,75.37607,-144.94701,-999.0,-1.78,-999.0,no,yes,no,51,AOFB,NPS,AMOS,North
2021-12-26T18:52:16Z,2021,19,52,360.7863,360.7863,75.39241,-145.0044,-999.0,-1.78,-999.0,no,yes,no,51,AOFB,NPS,AMOS,North
2021-12-27T00:52:33Z,2021,1,53,361.0365,361.0365,75.40827,-145.10998,-999.0,-1.78,-999.0,no,yes,no,51,AOFB,NPS,AMOS,North
2021-12-27T06:52:16Z,2021,7,52,361.2863,361.2863,75.423,-145.23864,-999.0,-1.78,-999.0,no,yes,no,51,AOFB,NPS,AMOS,North
2021-12-27T12:52:33Z,2021,13,53,361.5365,361.5365,75.41625,-145.34418,-999.0,-1.78,-999.0,no,yes,no,51,AOFB,NPS,AMOS,North
2021-12-27T18:52:24Z,2021,19,52,361.7864,361.7864,75.39849,-145.41869,-999.0,-1.78,-999.0,no,yes,no,51,AOFB,NPS,AMOS,North
2021-12-28T00:52:16Z,2021,1,52,362.0363,362.0363,75.37918,-145.46464,-999.0,-1.78,-999.0,no,yes,no,51,AOFB,NPS,AMOS,North
2021-12-28T06:52:16Z,2021,7,52,362.2863,362.2863,75.35638,-145.50221,-999.0,-1.78,-999.0,no,yes,no,51,AOFB,NPS,AMOS,North
2021-12-28T12:52:16Z,2021,13,52,362.5363,362.5363,75.33257,-145.53827,-999.0,-1.77,-999.0,no,yes,no,51,AOFB,NPS,AMOS,North
2021-12-28T18:52:16Z,2021,19,52,362.7863,362.7863,75.30876,-145.57433,-999.0,-1.77,-999.0,no,yes,no,51,AOFB,NPS,AMOS,North
2021-12-29T00:52:16Z,2021,1,52,363.0363,363.0363,75.28495,-145.61039,-999.0,-1.77,-999.0,no,yes,no,51,AOFB,NPS,AMOS,North
2021-12-29T06:52:16Z,2021,7,52,363.2863,363.2863,75.26114,-145.64645,-999.0,-1.77,-999.0,no,yes,no,51,AOFB,NPS,AMOS,North